Location: Chochol
(49.7771°N, 14.9780°E)
Time: 17:37:47
(UTC+00:00)

Terra - Pass Details

Date: 09 April 2020
Orbit: 701 x 703 km, 98.2° (Epoch: 29 May)

Event Time Altitude Azimuth Distance (km) Brightness Sun altitude
Exits shadow 20:29:27 58° 86° (E) 821 1.9 -23.4°
Maximum altitude 20:29:42 59° 71° (ENE) 814 1.9 -23.5°
Drops below altitude 10° 20:34:24 10° 352° (N) 2,185 5.1 -24.0°
Sets 20:36:41 0° 349° (N) 3,108 6.1 -24.2°
